Wind_Speed
12 20 22 24 33 38 34 35 32 39 38 34 32 34 30 33 34 38 33 33 36 34 32 27 25 24 23 19 16 13 9 5 1 1 1 3 3 2 4 6 7 5 5
11 10 20 26 23 25 24 26 27 38 44 38 34 31 38 37 37 35 37 36 38 37 33 28 28 26 23 20 18 16 11 5 3 3 2 2 1 4 5 8 8 4 3
16 11 10 19 23 25 28 28 21 21 34 42 42 30 33 29 30 33 37 37 41 38 33 30 30 27 25 23 20 16 12 9 4 4 3 2 3 3 1 7 7 3 3
10 9 9 12 21 20 25 32 33 29 27 40 38 38 35 23 24 40 39 38 38 36 31 30 30 28 24 22 20 17 13 11 9 6 4 2 2 2 3 2 6 3 1
13 14 10 16 26 32 32 24 35 39 33 37 38 39 30 33 32 36 39 39 35 31 29 33 31 28 25 22 19 17 14 12 11 8 5 4 4 4 3 3 4 10 17
6 5 4 2 3 8 17 23 22 29 34 32 40 39 39 37 35 34 35 36 33 31 32 32 30 27 26 24 19 16 14 11 10 8 7 6 4 4 3 2 4 7 12
5 3 5 6 11 15 22 21 22 26 25 33 41 40 44 44 43 42 37 36 35 34 35 32 29 27 25 22 19 16 14 10 9 7 6 5 5 4 4 4 4 3 8
6 6 5 3 8 14 20 25 28 27 26 29 38 41 42 41 39 41 39 33 35 35 35 32 28 26 24 21 19 16 12 9 7 6 5 4 4 4 5 4 4 3 4
3 6 5 6 9 17 21 25 26 31 27 32 36 39 40 38 36 35 33 34 31 34 36 33 29 25 24 21 18 15 12 8 6 5 3 3 3 4 5 5 6 4 3
3 2 2 4 11 19 23 24 21 29 26 33 38 36 35 34 32 31 32 31 31 32 36 33 28 25 23 20 17 14 11 8 7 5 4 4 5 6 8 10 10 9 10
7 6 3 2 9 18 22 23 17 25 25 31 32 34 33 31 30 31 30 32 32 35 36 32 30 27 24 20 17 13 10 7 6 4 5 5 6 8 9 8 11 14 15
9 7 5 1 7 16 20 23 14 21 26 28 31 33 32 31 31 30 31 33 33 34 34 31 28 26 23 17 14 12 8 5 3 4 5 7 8 10 11 12 14 14 14
10 7 6 2 5 11 14 10 15 25 27 32 34 31 33 32 31 31 32 32 32 31 31 29 26 22 18 17 12 11 7 4 3 4 6 8 10 12 13 13 14 15 20
12 7 5 3 3 7 9 11 20 24 29 29 31 29 31 31 31 32 30 30 30 30 28 26 23 17 14 11 9 7 4 3 3 5 6 8 10 12 12 13 17 18 18
3 7 6 4 5 13 14 14 14 21 24 28 28 27 28 28 29 29 30 32 32 28 24 20 16 15 11 9 7 5 3 2 5 7 8 8 10 11 13 15 16 18 20
8 2 4 6 8 14 13 17 15 18 26 25 28 28 28 28 29 28 31 33 32 30 24 18 10 13 8 6 4 3 1 3 6 9 10 11 13 14 12 16 18 18 22
4 4 3 5 12 17 18 17 18 22 24 26 26 28 28 29 31 33 30 27 24 22 19 18 14 9 6 4 2 3 4 5 7 10 13 14 14 13 17 17 18 20 19
7 3 6 10 15 24 21 21 23 24 25 24 25 27 30 31 30 28 30 25 22 17 18 14 11 8 5 3 2 3 5 7 8 10 11 13 16 17 18 21 20 19 24
6 10 15 18 19 22 22 26 25 26 26 24 26 28 31 29 25 28 25 20 20 15 14 12 10 7 5 1 2 6 9 11 12 11 13 15 17 18 18 21 24 26 21
15 19 20 20 22 19 21 25 24 26 25 22 24 28 28 25 22 23 24 19 19 16 11 9 6 4 3 1 5 6 10 13 14 14 16 17 17 19 20 23 24 19 24
16 18 19 19 20 22 23 22 22 20 20 25 25 24 24 22 20 21 20 19 14 12 9 7 4 1 3 3 5 7 9 12 14 15 19 19 19 20 23 23 24 23 25
13 15 17 17 17 19 24 20 21 20 23 27 25 23 25 23 21 21 18 15 11 9 7 6 5 5 3 4 7 8 9 11 17 18 20 20 20 22 23 22 19 21 21
12 13 15 17 17 17 20 22 19 26 26 24 20 23 23 22 18 17 14 13 9 7 7 4 3 2 5 7 7 11 12 13 16 18 19 19 19 20 17 18 20 18 21
11 13 15 16 15 18 20 25 22 20 22 23 22 24 22 19 15 13 11 10 8 7 3 2 4 7 8 10 11 13 16 17 19 20 13 15 17 17 17 18 19 20 19
15 15 16 16 17 19 20 21 23 25 24 23 23 20 18 16 14 12 10 7 6 4 3 4 5 7 10 11 12 15 18 19 17 19 18 20 21 20 18 18 19 20 20
17 16 16 18 17 20 20 21 21 23 26 23 20 17 15 13 11 9 8 6 5 4 5 4 5 7 8 10 13 16 17 15 16 14 16 17 17 17 18 19 22 23 22
Wind_Direction
254 247 247 242 241 238 242 237 226 202 196 193 193 203 205 209 206 196 200 202 201 204 202 203 194 190 191 188 180 166 160 131 69 145 92 166 186 199 210 209 222 245 262
249 260 257 259 253 244 241 245 232 208 200 196 196 198 207 206 209 199 198 203 203 203 205 202 192 191 187 181 178 175 163 146 110 136 99 23 286 239 234 224 220 243 236
242 238 241 248 257 257 250 245 244 232 204 201 199 194 194 196 191 195 196 200 200 200 202 197 193 190 192 183 182 183 180 158 129 114 148 102 223 309 48 210 196 199 290
233 224 229 238 246 254 256 250 248 242 232 210 200 193 185 177 194 192 191 190 195 197 194 193 191 189 188 186 183 181 181 177 163 141 120 124 146 165 326 193 204 313 303
222 232 241 245 249 253 251 256 248 243 238 229 212 203 183 185 189 183 178 182 185 188 187 188 188 188 188 186 181 172 174 177 168 169 159 169 184 206 153 269 287 280 297
171 178 179 103 345 313 269 254 245 248 244 225 214 199 190 183 174 178 175 178 181 183 183 187 191 189 183 179 178 172 170 166 167 167 167 181 175 175 181 231 273 283 314
157 102 55 22 9 354 339 309 257 239 246 233 208 197 197 193 186 182 178 175 176 179 179 188 188 183 183 180 176 173 165 166 171 171 177 184 199 215 238 252 280 280 305
161 141 111 70 3 334 320 315 301 246 232 224 200 196 195 189 188 187 188 183 180 176 179 184 184 184 180 175 170 168 163 171 176 187 199 207 228 252 263 258 262 306 268
160 116 62 28 353 330 316 307 300 256 223 202 187 188 188 186 190 192 195 195 188 179 179 181 178 179 175 174 170 166 167 173 183 197 211 245 258 265 273 275 284 250 290
172 136 88 6 328 320 312 315 297 251 214 189 182 177 177 182 187 186 185 183 183 172 175 175 175 173 171 170 167 166 170 179 183 202 224 254 264 274 283 288 289 284 276
218 201 195 268 311 312 315 314 294 231 193 176 166 164 169 175 177 178 177 176 166 171 174 174 172 171 170 169 167 168 169 177 186 213 250 268 273 285 290 289 291 295 292
238 212 170 198 305 307 323 309 270 193 166 161 160 161 166 165 167 165 166 165 163 169 171 170 167 168 167 162 166 160 165 180 200 249 273 282 286 286 294 295 296 293 290
252 181 182 185 292 320 333 304 148 145 153 159 150 144 148 153 156 155 157 160 157 156 164 166 163 164 158 159 165 169 160 186 228 272 283 292 287 293 298 292 288 291 298
255 179 168 166 283 20 81 111 124 139 146 139 134 135 138 147 144 148 146 147 148 151 154 156 150 154 159 157 158 146 150 195 256 276 287 292 296 298 299 298 300 299 292
293 157 154 189 68 86 89 93 99 120 126 122 122 126 133 136 135 135 137 141 143 142 148 148 149 158 159 160 170 140 191 276 294 296 302 302 302 300 299 302 305 305 301
3 68 158 95 97 86 86 96 97 106 117 115 117 125 127 123 120 123 127 136 139 139 145 139 146 153 157 164 162 145 82 345 326 320 324 314 307 307 300 299 296 294 298
290 325 86 102 107 101 104 101 104 105 105 114 117 117 116 113 118 129 133 135 138 136 131 146 167 155 161 176 109 41 14 351 344 334 327 320 317 308 306 301 295 294 293
264 205 113 101 103 102 101 104 105 104 106 103 104 107 108 111 122 132 135 134 131 141 148 156 151 154 169 178 43 1 2 359 348 335 336 335 326 318 311 304 305 306 308
61 89 101 102 102 103 108 103 97 95 96 99 98 106 125 127 132 134 134 140 136 150 164 156 144 155 169 122 9 353 358 357 344 332 327 328 323 320 312 309 311 311 305
69 90 91 91 93 97 103 102 101 98 96 108 118 132 133 135 138 141 131 148 150 152 152 128 128 133 82 128 348 348 343 342 337 332 329 327 318 313 310 311 315 314 317
80 86 89 97 102 104 104 97 102 103 120 125 129 130 129 132 139 140 143 141 145 135 128 118 111 129 36 3 352 333 317 325 327 329 325 324 318 313 314 314 317 315 313
83 89 98 98 101 116 118 107 106 119 127 131 129 132 135 140 141 142 136 128 129 124 110 99 99 72 68 348 336 334 335 328 325 320 318 316 314 319 318 317 316 315 317
99 94 97 87 83 102 118 114 120 133 129 124 131 138 142 140 135 121 119 113 110 113 86 80 72 42 352 345 340 340 333 326 320 316 314 316 320 322 324 324 320 319 319
104 109 105 103 106 119 125 128 133 136 133 134 136 134 121 116 117 115 115 107 91 83 91 61 14 354 348 345 347 339 334 333 326 323 324 327 333 333 328 328 329 327 320
117 118 115 112 115 121 122 133 141 147 133 128 124 120 121 119 113 97 86 88 88 64 57 37 8 355 347 346 337 336 332 324 325 328 331 339 341 336 330 324 321 320 316
121 114 114 114 118 121 126 141 149 146 136 129 124 123 123 120 115 118 119 107 80 55 34 21 2 350 338 337 336 331 328 335 338 342 348 340 334 325 322 319 317 317 315
Height
728 728 729 730 732 734 735 738 740 742 746 750 755 760 763 768 771 774 779 782 784 789 793 796 799 803 805 807 810 812 815 816 817 817 818 819 819 820 821 821 822 822 822
725 723 724 726 727 728 730 732 734 735 737 742 747 752 757 762 765 769 773 776 780 784 789 792 796 800 803 805 807 808 812 814 815 816 817 820 821 819 819 819 820 820 820
720 719 720 721 722 723 724 727 730 733 735 734 739 744 751 757 761 765 766 771 774 780 784 788 792 797 800 802 804 807 809 812 816 814 815 820 821 820 817 817 818 818 819
713 713 714 715 716 718 720 721 723 727 730 732 731 733 739 747 753 755 758 765 771 775 782 786 790 794 798 801 802 804 807 809 811 814 814 814 816 820 820 816 816 816 816
707 707 707 707 708 710 713 716 717 718 722 726 725 728 733 740 745 752 756 760 766 772 778 784 788 791 795 799 802 803 805 807 809 811 812 814 815 816 818 819 815 814 814
705 706 706 707 707 707 709 711 713 713 715 717 719 721 725 732 741 750 754 758 763 769 775 782 785 788 792 795 800 802 805 806 808 809 810 811 812 814 815 817 814 812 809
704 705 704 704 705 706 708 709 707 707 709 712 711 715 720 725 732 742 750 755 759 765 768 777 782 787 792 794 797 800 802 805 807 809 809 810 811 812 813 814 813 812 807
702 702 702 702 702 703 704 705 703 701 702 704 704 710 714 721 729 737 745 752 756 760 766 774 781 786 789 793 796 799 800 803 805 807 809 809 810 812 812 812 812 811 808
704 702 701 701 701 701 700 700 697 697 696 697 701 703 709 717 726 734 743 750 756 758 764 772 778 785 788 792 793 795 798 802 804 807 808 809 810 810 811 811 810 809 809
704 701 699 697 698 698 697 691 690 691 691 695 695 700 707 716 724 732 740 748 754 759 762 769 776 783 786 789 791 794 797 800 803 805 806 807 808 808 808 808 807 806 805
701 697 695 696 697 696 692 688 685 689 689 693 695 700 709 716 723 731 737 745 753 757 761 767 774 780 785 787 790 793 797 800 802 804 804 805 805 805 804 804 803 802 801
698 695 694 694 694 693 686 686 682 686 688 692 697 701 708 716 723 730 737 745 751 756 761 768 774 781 784 786 790 791 795 798 800 802 802 803 803 802 801 800 799 798 797
691 691 692 692 692 688 686 685 682 683 689 692 696 705 710 717 725 732 738 746 751 757 763 771 776 782 784 785 789 791 792 796 797 799 798 799 800 799 797 796 795 794 792
685 687 690 688 688 687 688 689 685 686 690 696 699 706 712 719 727 734 742 749 754 759 766 773 778 784 787 789 790 790 792 795 795 796 794 795 795 795 794 793 791 790 787
682 682 686 688 689 689 691 692 692 692 696 698 704 711 719 726 732 740 746 750 756 762 770 776 781 784 789 787 792 787 792 792 792 793 792 791 792 792 791 789 787 786 783
693 689 688 690 691 693 696 696 701 700 701 705 710 719 725 730 737 744 749 754 760 766 772 777 785 788 790 791 791 789 787 787 788 789 788 788 788 787 786 785 784 782 778
694 693 692 694 693 696 700 702 705 706 709 713 719 724 729 735 741 747 754 761 765 768 772 775 784 785 790 792 790 787 786 785 785 786 786 785 784 783 782 780 778 776 774
691 692 696 699 701 699 706 708 710 712 716 721 726 730 735 741 749 752 753 758 766 774 776 784 783 786 790 790 788 786 785 783 782 784 783 782 780 779 777 774 772 770 767
691 696 700 703 705 706 710 712 717 719 725 731 733 738 742 749 755 757 760 766 766 775 784 784 785 787 789 786 786 784 783 781 782 782 781 779 777 776 774 771 767 763 760
704 703 707 710 711 716 718 718 723 728 735 740 742 744 749 755 759 761 758 771 774 780 786 783 784 788 786 785 784 783 781 781 781 780 778 776 774 772 769 766 762 757 753
712 713 714 715 719 721 724 728 732 735 740 740 745 750 753 755 763 768 769 773 780 781 783 784 785 786 783 783 783 782 781 780 779 777 774 772 771 768 764 761 757 753 749
721 721 721 723 726 728 728 733 738 743 745 747 751 758 759 763 767 771 774 775 779 781 782 783 784 782 782 783 782 782 781 779 777 775 772 770 767 764 760 756 753 749 746
726 727 728 730 732 735 736 738 745 747 751 753 759 762 764 768 772 772 776 777 780 783 780 782 782 782 782 781 780 780 779 777 775 772 768 765 763 759 756 753 750 747 743
730 732 734 737 740 740 742 745 751 755 755 759 763 764 765 769 774 776 778 778 779 779 782 782 781 781 780 780 779 778 776 773 770 766 764 762 759 756 753 749 746 743 739
734 736 738 741 745 747 750 752 755 758 759 762 764 766 770 773 776 776 777 779 781 782 782 781 781 780 780 779 777 775 772 769 766 763 760 757 755 753 750 746 742 739 735
737 741 743 746 749 751 754 757 760 761 762 765 768 771 773 776 778 779 781 782 783 782 781 781 781 780 779 777 775 773 770 766 764 761 759 757 754 752 748 743 739 735 731